Time,TemperatureF,DewpointF,PressureIn,WindDirection,WindDirectionDegrees,WindSpeedMPH,WindSpeedGustMPH,Humidity,HourlyPrecipIn,Conditions,Clouds,dailyrainin,SoftwareType,DateUTC
2013-01-26 00:02:00,36.0,35.0,29.83,North,-999,-999.0,-999.0,95,0.01,,,0.53,,2013-01-26 08:02:00,
2013-01-26 00:11:00,36.0,35.0,29.83,North,-999,-999.0,-999.0,95,0.01,,,0.53,,2013-01-26 08:11:00,
2013-01-26 00:21:00,36.0,35.0,29.83,North,-999,-999.0,-999.0,95,0.01,,,0.53,,2013-01-26 08:21:00,
2013-01-26 00:31:00,36.0,35.0,29.83,North,-999,-999.0,-999.0,95,0.01,,,0.53,,2013-01-26 08:31:00,
2013-01-26 00:41:00,36.0,35.0,29.83,North,-999,-999.0,-999.0,95,0.01,,,0.53,,2013-01-26 08:41:00,
2013-01-26 00:53:00,36.0,35.0,29.81,North,-999,-999.0,-999.0,95,0.01,,,0.53,,2013-01-26 08:53:00,
2013-01-26 01:01:00,36.0,35.0,29.79,North,-999,-999.0,-999.0,95,0.01,,,0.54,,2013-01-26 09:01:00,
2013-01-26 01:11:00,36.0,35.0,29.79,North,-999,-999.0,-999.0,95,0.01,,,0.54,,2013-01-26 09:11:00,
2013-01-26 01:22:00,36.0,35.0,29.79,North,-999,-999.0,-999.0,96,0.01,,,0.54,,2013-01-26 09:22:00,
2013-01-26 01:31:00,36.0,35.0,29.81,North,-999,-999.0,-999.0,95,0.02,,,0.55,,2013-01-26 09:31:00,
2013-01-26 01:42:00,36.0,35.0,29.81,North,-999,-999.0,-999.0,95,0.02,,,0.55,,2013-01-26 09:42:00,
2013-01-26 01:52:00,36.0,35.0,29.81,North,-999,-999.0,-999.0,95,0.01,,,0.55,,2013-01-26 09:52:00,
2013-01-26 02:01:00,36.0,35.0,29.81,North,-999,-999.0,-999.0,96,0.01,,,0.55,,2013-01-26 10:01:00,
2013-01-26 02:11:00,36.0,35.0,29.81,North,-999,-999.0,-999.0,96,0.01,,,0.55,,2013-01-26 10:11:00,
2013-01-26 02:21:00,36.0,35.0,29.81,North,-999,-999.0,-999.0,96,0.01,,,0.55,,2013-01-26 10:21:00,
2013-01-26 02:31:00,36.0,35.0,29.81,North,-999,-999.0,-999.0,96,0.01,,,0.55,,2013-01-26 10:31:00,
2013-01-26 02:42:00,36.0,35.0,29.81,North,-999,-999.0,-999.0,96,0.01,,,0.55,,2013-01-26 10:42:00,
2013-01-26 02:52:00,36.0,35.0,29.81,North,-999,-999.0,-999.0,96,0.01,,,0.55,,2013-01-26 10:52:00,
2013-01-26 03:01:00,36.0,35.0,29.80,North,-999,-999.0,-999.0,96,0.01,,,0.56,,2013-01-26 11:01:00,
2013-01-26 03:10:00,35.0,34.0,29.79,North,-999,-999.0,-999.0,95,0.02,,,0.57,,2013-01-26 11:10:00,
2013-01-26 03:12:00,36.0,35.0,29.80,North,-999,-999.0,-999.0,96,0.01,,,0.56,,2013-01-26 11:12:00,
2013-01-26 03:22:00,36.0,35.0,29.80,North,-999,-999.0,-999.0,96,0.01,,,0.56,,2013-01-26 11:22:00,
2013-01-26 03:32:00,35.0,34.0,29.79,North,-999,-999.0,-999.0,95,0.02,,,0.57,,2013-01-26 11:32:00,
2013-01-26 03:42:00,35.0,34.0,29.79,North,-999,-999.0,-999.0,95,0.02,,,0.57,,2013-01-26 11:42:00,
2013-01-26 03:52:00,35.0,34.0,29.79,North,-999,-999.0,-999.0,95,0.02,,,0.57,,2013-01-26 11:52:00,
2013-01-26 04:01:00,35.0,34.0,29.79,North,-999,-999.0,-999.0,95,0.02,,,0.57,,2013-01-26 12:01:00,
2013-01-26 04:33:00,34.0,33.0,29.77,North,-999,-999.0,-999.0,95,0.00,,,0.58,,2013-01-26 12:33:00,
2013-01-26 04:42:00,34.0,33.0,29.77,North,-999,-999.0,-999.0,95,0.00,,,0.58,,2013-01-26 12:42:00,
2013-01-26 04:53:00,34.0,33.0,29.77,North,-999,-999.0,-999.0,95,0.00,,,0.58,,2013-01-26 12:53:00,
2013-01-26 05:03:00,34.0,33.0,29.77,North,-999,-999.0,-999.0,95,0.00,,,0.58,,2013-01-26 13:03:00,
2013-01-26 05:12:00,34.0,33.0,29.77,North,-999,-999.0,-999.0,95,0.00,,,0.58,,2013-01-26 13:12:00,
2013-01-26 05:22:00,34.0,33.0,29.76,North,-999,-999.0,-999.0,95,0.00,,,0.58,,2013-01-26 13:22:00,
2013-01-26 05:32:00,34.0,33.0,29.76,North,-999,-999.0,-999.0,95,0.01,,,0.59,,2013-01-26 13:32:00,
2013-01-26 05:42:00,34.0,33.0,29.76,North,-999,-999.0,-999.0,95,0.01,,,0.59,,2013-01-26 13:42:00,
2013-01-26 05:53:00,34.0,33.0,29.77,North,-999,-999.0,-999.0,95,0.01,,,0.59,,2013-01-26 13:53:00,
2013-01-26 06:02:00,34.0,33.0,29.77,North,-999,-999.0,-999.0,95,0.01,,,0.59,,2013-01-26 14:02:00,
2013-01-26 06:11:00,34.0,33.0,29.77,North,-999,-999.0,-999.0,95,0.01,,,0.59,,2013-01-26 14:11:00,
2013-01-26 06:21:00,34.0,33.0,29.79,North,-999,-999.0,-999.0,95,0.01,,,0.59,,2013-01-26 14:21:00,
2013-01-26 06:31:00,34.0,33.0,29.79,North,-999,-999.0,-999.0,95,0.00,,,0.59,,2013-01-26 14:31:00,
2013-01-26 06:42:00,34.0,33.0,29.79,North,-999,-999.0,-999.0,95,0.00,,,0.59,,2013-01-26 14:42:00,
2013-01-26 06:53:00,34.0,33.0,29.79,North,-999,-999.0,-999.0,95,0.00,,,0.59,,2013-01-26 14:53:00,
2013-01-26 07:02:00,34.0,33.0,29.79,North,-999,-999.0,-999.0,95,0.00,,,0.59,,2013-01-26 15:02:00,
2013-01-26 09:03:00,34.0,33.0,29.79,North,-999,-999.0,-999.0,95,0.00,,,0.59,,2013-01-26 17:03:00,
2013-01-26 09:10:00,33.0,32.0,29.84,North,-999,-999.0,-999.0,95,0.00,,,0.59,,2013-01-26 17:10:00,
2013-01-26 09:12:00,34.0,33.0,29.79,North,-999,-999.0,-999.0,95,0.00,,,0.59,,2013-01-26 17:12:00,
2013-01-26 09:22:00,34.0,33.0,29.79,North,-999,-999.0,-999.0,95,0.00,,,0.59,,2013-01-26 17:22:00,
2013-01-26 09:32:00,33.0,32.0,29.84,North,-999,-999.0,-999.0,95,0.00,,,0.59,,2013-01-26 17:32:00,
2013-01-26 09:41:00,33.0,32.0,29.84,North,-999,-999.0,-999.0,95,0.00,,,0.59,,2013-01-26 17:41:00,
2013-01-26 09:53:00,33.0,32.0,29.84,North,-999,-999.0,-999.0,95,0.00,,,0.59,,2013-01-26 17:53:00,
2013-01-26 10:02:00,33.0,32.0,29.84,North,-999,-999.0,-999.0,95,0.00,,,0.59,,2013-01-26 18:02:00,
2013-01-26 12:32:00,35.0,34.0,29.83,North,-999,-999.0,-999.0,95,0.01,,,0.53,,2013-01-26 20:32:00,
2013-01-26 12:42:00,35.0,34.0,29.83,North,-999,-999.0,-999.0,95,0.01,,,0.53,,2013-01-26 20:42:00,
2013-01-26 12:52:00,35.0,34.0,29.82,North,-999,-999.0,-999.0,95,0.01,,,0.53,,2013-01-26 20:52:00,
2013-01-26 13:02:00,35.0,34.0,29.82,North,-999,-999.0,-999.0,95,0.01,,,0.53,,2013-01-26 21:02:00,
2013-01-26 13:11:00,35.0,34.0,29.82,North,-999,-999.0,-999.0,95,0.01,,,0.53,,2013-01-26 21:11:00,
2013-01-26 13:22:00,35.0,34.0,29.81,North,-999,-999.0,-999.0,95,0.01,,,0.54,,2013-01-26 21:22:00,
2013-01-26 13:32:00,35.0,34.0,29.81,North,-999,-999.0,-999.0,95,0.01,,,0.50,,2013-01-26 21:32:00,
2013-01-26 13:42:00,35.0,34.0,29.81,North,-999,-999.0,-999.0,95,0.01,,,0.50,,2013-01-26 21:42:00,
2013-01-26 13:51:00,35.0,34.0,29.81,North,-999,-999.0,-999.0,95,0.01,,,0.50,,2013-01-26 21:51:00,
2013-01-26 14:01:00,35.0,34.0,29.81,North,-999,-999.0,-999.0,95,0.01,,,0.50,,2013-01-26 22:01:00,
2013-01-26 17:22:00,35.0,34.0,29.81,North,-999,-999.0,-999.0,96,0.01,,,0.50,,2013-01-27 01:22:00,
2013-01-26 17:32:00,33.0,32.0,29.82,North,-999,-999.0,-999.0,95,0.00,,,0.30,,2013-01-27 01:32:00,
2013-01-26 17:41:00,33.0,32.0,29.82,North,-999,-999.0,-999.0,95,0.00,,,0.30,,2013-01-27 01:41:00,
2013-01-26 17:51:00,33.0,32.0,29.83,North,-999,-999.0,-999.0,95,0.00,,,0.30,,2013-01-27 01:51:00,
2013-01-26 18:01:00,33.0,32.0,29.82,North,-999,-999.0,-999.0,95,0.00,,,0.30,,2013-01-27 02:01:00,
2013-01-26 18:11:00,33.0,32.0,29.82,North,-999,-999.0,-999.0,95,0.00,,,0.30,,2013-01-27 02:11:00,
2013-01-26 18:21:00,33.0,32.0,29.82,North,-999,-999.0,-999.0,95,0.00,,,0.22,,2013-01-27 02:21:00,
2013-01-26 18:31:00,33.0,32.0,29.83,North,-999,-999.0,-999.0,95,0.00,,,0.22,,2013-01-27 02:31:00,
2013-01-26 18:41:00,33.0,32.0,29.83,North,-999,-999.0,-999.0,95,0.00,,,0.22,,2013-01-27 02:41:00,
2013-01-26 18:52:00,33.0,32.0,29.83,North,-999,-999.0,-999.0,95,0.00,,,0.22,,2013-01-27 02:52:00,
2013-01-26 19:01:00,33.0,32.0,29.83,North,-999,-999.0,-999.0,95,0.00,,,0.22,,2013-01-27 03:01:00,
2013-01-26 19:11:00,33.0,32.0,29.83,North,-999,-999.0,-999.0,95,0.00,,,0.22,,2013-01-27 03:11:00,
2013-01-26 19:21:00,33.0,32.0,29.83,North,-999,-999.0,-999.0,95,0.00,,,0.19,,2013-01-27 03:21:00,
2013-01-26 19:31:00,33.0,32.0,29.83,North,-999,-999.0,-999.0,95,0.00,,,0.19,,2013-01-27 03:31:00,
2013-01-26 19:41:00,33.0,32.0,29.83,North,-999,-999.0,-999.0,95,0.00,,,0.19,,2013-01-27 03:41:00,
2013-01-26 19:52:00,33.0,32.0,29.83,North,-999,-999.0,-999.0,95,0.00,,,0.19,,2013-01-27 03:52:00,
2013-01-26 20:01:00,33.0,32.0,29.83,North,-999,-999.0,-999.0,95,0.00,,,0.19,,2013-01-27 04:01:00,
2013-01-26 20:52:00,33.0,32.0,29.84,North,-999,-999.0,-999.0,95,0.00,,,0.19,,2013-01-27 04:52:00,
2013-01-26 21:03:00,33.0,32.0,29.84,North,-999,-999.0,-999.0,95,0.00,,,0.19,,2013-01-27 05:03:00,
2013-01-26 21:12:00,33.0,32.0,29.84,North,-999,-999.0,-999.0,95,0.00,,,0.19,,2013-01-27 05:12:00,
2013-01-26 21:22:00,33.0,32.0,29.84,North,-999,-999.0,-999.0,95,0.00,,,0.19,,2013-01-27 05:22:00,
2013-01-26 21:31:00,33.0,32.0,29.84,North,-999,-999.0,-999.0,95,0.00,,,0.19,,2013-01-27 05:31:00,
2013-01-26 22:32:00,32.0,31.0,29.86,North,-999,-999.0,-999.0,95,0.00,,,0.12,,2013-01-27 06:32:00,
2013-01-26 22:42:00,32.0,31.0,29.86,North,-999,-999.0,-999.0,95,0.00,,,0.12,,2013-01-27 06:42:00,
2013-01-26 22:52:00,32.0,31.0,29.85,North,-999,-999.0,-999.0,95,0.00,,,0.12,,2013-01-27 06:52:00,
2013-01-26 23:01:00,32.0,31.0,29.85,North,-999,-999.0,-999.0,95,0.00,,,0.12,,2013-01-27 07:01:00,
2013-01-26 23:13:00,32.0,31.0,29.85,North,-999,-999.0,-999.0,95,0.00,,,0.12,,2013-01-27 07:13:00,
2013-01-26 23:21:00,32.0,31.0,29.85,North,-999,-999.0,-999.0,95,0.00,,,0.12,,2013-01-27 07:21:00,
2013-01-26 23:31:00,32.0,31.0,29.84,North,-999,-999.0,-999.0,95,0.00,,,0.11,,2013-01-27 07:31:00,
2013-01-26 23:41:00,32.0,31.0,29.84,North,-999,-999.0,-999.0,95,0.00,,,0.11,,2013-01-27 07:41:00,
2013-01-26 23:52:00,32.0,31.0,29.84,North,-999,-999.0,-999.0,95,0.00,,,0.11,,2013-01-27 07:52:00,